Change the Weather History Date:

Tuesday, June 4, 2013

  Actual Average Record
Temperature  
Mean Temperature 68 °F 69 °F  
Max Temperature 74 °F 77 °F 89 °F (1989)
Min Temperature 61 °F 60 °F 44 °F (1988)
Degree Days  
Heating Degree Days 0    
Month to date heating degree days 0  
Since 1 June heating degree days 0  
Since 1 July heating degree days 3761  
Cooling Degree Days 3    
Month to date cooling degree days 32  
Year to date cooling degree days 163  
Since 1 June cooling degree days 32  
Growing Degree Days 18 (Base 50)    
Moisture  
Dew Point 54 °F    
Average Humidity 61    
Maximum Humidity 84    
Minimum Humidity 37    
Precipitation  
Precipitation 0.00 in 0.11 in 1.99 in (2008)
Month to date precipitation 0.59 0.45  
Year to date precipitation 18.66 16.27  
Sea Level Pressure  
Sea Level Pressure 30.04 in    
Wind  
Wind Speed 8 mph (ENE)    
Max Wind Speed 18 mph    
Max Gust Speed 23 mph    
Visibility 10 miles    
Events      
T = Trace of Precipitation, MM = Missing Value Source: NWS Daily Summary

Daily Weather History Graph

Daily Weather History Graph

Search for Another Location

Airport or City:

Trip Planner

Search our weather history database for the weather conditions in past years. The results will help you decide how hot, cold, wet, or windy it might be!

Date:

Astronomy

Jun. 04, 2013 Rise Set
Actual Time 5:40 AM EDT 8:20 PM EDT
Civil Twilight 5:09 AM EDT 8:51 PM EDT
Nautical Twilight 4:30 AM EDT 9:30 PM EDT
Astronomical Twilight 3:47 AM EDT 10:13 PM EDT
Moon 3:05 AM EDT (6/4) 4:50 PM EDT (6/4)
Length of Visible Light 15h 42m
Length of Day
14h 40m
Waning Crescent, 14% of the Moon is Illuminated
Jun 4
Waning Crescent
Jun 8
New
Jun 16
First Quarter
Jun 23
Full
Jun 30
Last Quarter

Hourly Weather History & Observations

Time (EDT) Temp. Dew Point Humidity Pressure Visibility Wind Dir Wind Speed Gust Speed Precip Events Conditions
12:54 AM 71.1 °F 64.9 °F 81% 29.92 in 8.0 mi NW 5.8 mph - N/A   Scattered Clouds
1:54 AM 71.1 °F 64.0 °F 78% 29.92 in 7.0 mi NW 4.6 mph - N/A   Partly Cloudy
2:54 AM 70.0 °F 64.0 °F 81% 29.91 in 6.0 mi NW 4.6 mph - N/A   Haze
3:54 AM 71.1 °F 64.0 °F 78% 29.92 in 8.0 mi NNW 10.4 mph - N/A   Overcast
4:54 AM 69.1 °F 61.0 °F 75% 29.93 in 10.0 mi North 8.1 mph - N/A   Mostly Cloudy
5:54 AM 66.9 °F 57.9 °F 73% 29.96 in 10.0 mi North 6.9 mph - N/A   Overcast
6:54 AM 66.9 °F 57.0 °F 70% 29.99 in 10.0 mi North 9.2 mph - N/A   Clear
7:54 AM 68.0 °F 55.9 °F 65% 30.01 in 10.0 mi NNE 9.2 mph - N/A   Scattered Clouds
8:54 AM 69.1 °F 55.9 °F 63% 30.04 in 10.0 mi NE 11.5 mph - N/A   Clear
9:54 AM 72.0 °F 55.9 °F 57% 30.06 in 10.0 mi ENE 9.2 mph - N/A   Scattered Clouds
10:10 AM 71.1 °F 54.0 °F 55% 30.07 in 10.0 mi NE 8.1 mph - N/A   Mostly Cloudy
10:27 AM 71.1 °F 55.0 °F 57% 30.08 in 10.0 mi East 17.3 mph 23.0 mph N/A   Scattered Clouds
10:54 AM 71.1 °F 53.1 °F 53% 30.09 in 10.0 mi East 13.8 mph 20.7 mph N/A   Partly Cloudy
11:54 AM 70.0 °F 51.1 °F 51% 30.10 in 10.0 mi East 12.7 mph - N/A   Partly Cloudy
12:54 PM 71.1 °F 50.0 °F 47% 30.09 in 10.0 mi East 12.7 mph - N/A   Partly Cloudy
1:54 PM 73.0 °F 46.9 °F 39% 30.09 in 10.0 mi East 9.2 mph - N/A   Partly Cloudy
2:54 PM 72.0 °F 48.0 °F 43% 30.07 in 10.0 mi ESE 8.1 mph - N/A   Partly Cloudy
3:54 PM 72.0 °F 46.9 °F 41% 30.07 in 10.0 mi South 9.2 mph - N/A   Clear
4:54 PM 70.0 °F 46.0 °F 42% 30.07 in 10.0 mi South 9.2 mph - N/A   Partly Cloudy
5:54 PM 70.0 °F 43.0 °F 38% 30.06 in 10.0 mi SSW 9.2 mph - N/A   Clear
6:54 PM 70.0 °F 50.0 °F 49% 30.06 in 10.0 mi South 6.9 mph - N/A   Clear
7:54 PM 66.9 °F 53.1 °F 61% 30.08 in 10.0 mi Calm Calm - N/A   Clear
8:54 PM 63.0 °F 53.1 °F 70% 30.09 in 10.0 mi Calm Calm - N/A   Clear
9:54 PM 63.0 °F 53.1 °F 70% 30.12 in 10.0 mi SSE 6.9 mph - N/A   Clear
10:54 PM 62.1 °F 54.0 °F 75% 30.12 in 10.0 mi SSE 3.5 mph - N/A   Clear
11:54 PM 61.0 °F 54.0 °F 78% 30.13 in 10.0 mi South 5.8 mph - N/A   Clear